Location: McCloud Nature Park
(39.8272°N, 86.6824°W)
Time: 02:37:15
(UTC-05:00)

Amateur Radio Satellites - All Passes

Search period start: 01 November 2014 02:07
Search period end: 02 November 2014 01:07
Location: McCloud Nature Park, 39.8272°N, 86.6824°W

Satellite Date Start Highest point End Downlink Frequencies (MHz)
Time Altitude Azimuth
AO-27 01 Nov 02:11:42 02:15:54 24° 95° (E) 02:20:04 436.795 MHz FM
Oscar 16 01 Nov 02:20:27 02:25:36 76° 103° (ESE) 02:30:42 437.025 USB, Beacon 2401.1428
Gurwin Techsat 1B 01 Nov 02:30:35 02:34:23 20° 93° (E) 02:38:10 435.225 FM
Sapphire 01 Nov 02:34:28 02:39:52 76° 299° (WNW) 02:45:19 437.095 MHz 1200 baud AX-25 AFSK
TMSAT-1 01 Nov 02:37:00 02:40:17 16° 91° (E) 02:43:32 436.925 FM
AO-Echo 01 Nov 02:50:49 02:56:10 79° 103° (ESE) 03:01:25 ?
Uribyol 2 01 Nov 02:54:27 02:59:38 66° 102° (ESE) 03:04:46 436.500 FM
PCSat 01 Nov 02:56:23 03:01:35 47° 304° (NW) 03:06:50 145.825 MHz
ITAMSAT 1 01 Nov 03:02:32 03:07:46 74° 103° (ESE) 03:12:57 435.822 SSB
JAS-1B 01 Nov 03:06:02 03:13:06 63° 288° (WNW) 03:21:33 435.800 - 435.900 CW/SSB
Oscar 19 01 Nov 03:12:55 03:17:33 36° 291° (WNW) 03:22:10 437.125 CW, 437.150 USB
RS-15 01 Nov 03:37:53 03:46:37 25° 27° (NNE) 03:55:34 29.354 - 29.394 USB, Beacon 29.352 USB
PANSAT 01 Nov 03:47:03 03:48:07 11° 167° (SSE) 03:49:10 not established
AO-27 01 Nov 03:50:40 03:55:31 40° 291° (WNW) 04:00:19 436.795 MHz FM
Oscar 16 01 Nov 04:01:51 04:04:17 14° 299° (WNW) 04:06:42 437.025 USB, Beacon 2401.1428
Gurwin Techsat 1B 01 Nov 04:09:29 04:14:37 50° 289° (WNW) 04:19:43 435.225 FM
TMSAT-1 01 Nov 04:15:21 04:20:34 59° 287° (WNW) 04:25:45 436.925 FM
OPAL 01 Nov 04:19:40 04:24:01 29° 65° (ENE) 04:28:19 ?
Saudisat 1A 01 Nov 04:20:05 04:21:18 11° 107° (ESE) 04:22:31 436.775 MHz
Sapphire 01 Nov 04:21:35 04:24:14 14° 319° (NW) 04:26:53 437.095 MHz 1200 baud AX-25 AFSK
AO-Echo 01 Nov 04:31:33 04:34:13 14° 299° (WNW) 04:36:51 ?
Uribyol 2 01 Nov 04:35:29 04:38:32 16° 299° (WNW) 04:41:34 436.500 FM
Uosat F 01 Nov 04:43:08 04:47:45 35° 98° (E) 04:52:20 435.120 FM
ITAMSAT 1 01 Nov 04:43:54 04:46:37 14° 299° (WNW) 04:49:19 435.822 SSB
JAS-2 01 Nov 04:48:25 04:53:41 19° 88° (E) 04:58:46 435.800 - 435.900 CW/SSB, 435.910 FM
AO-7 01 Nov 04:51:38 04:59:50 58° 103° (ESE) 05:08:00 29.400 - 29.500 MHz
JAS-1B 01 Nov 05:00:31 05:02:39 11° 305° (NW) 05:04:52 435.800 - 435.900 CW/SSB
PANSAT 01 Nov 05:25:16 05:27:32 15° 180° (S) 05:29:48 not established
Hamsat 01 Nov 05:28:39 05:30:44 13° 91° (E) 05:32:48 145.90 MHz
RS-15 01 Nov 05:50:14 06:01:25 71° 55° (NE) 06:13:05 29.354 - 29.394 USB, Beacon 29.352 USB
Saudisat 1A 01 Nov 05:55:53 06:00:15 71° 303° (WNW) 06:04:39 436.775 MHz
OPAL 01 Nov 05:58:12 06:02:47 33° 261° (W) 06:07:20 ?
STRAND 1 01 Nov 06:16:33 06:21:23 43° 70° (ENE) 06:26:15 ?
Uosat F 01 Nov 06:22:12 06:26:21 26° 294° (WNW) 06:30:29 435.120 FM
JAS-2 01 Nov 06:31:33 06:39:29 84° 285° (WNW) 06:47:04 435.800 - 435.900 CW/SSB, 435.910 FM
AO-7 01 Nov 06:45:03 06:52:10 33° 301° (WNW) 06:59:18 29.400 - 29.500 MHz
Hamsat 01 Nov 07:02:51 07:06:55 48° 286° (WNW) 07:11:01 145.90 MHz
PANSAT 01 Nov 07:05:50 07:06:57 11° 193° (SSW) 07:08:04 not established
SO-67 01 Nov 07:20:55 07:23:58 28° 97° (E) 07:26:59 435.3500 MHz FM
Saudisat 1A 01 Nov 07:39:33 07:40:37 11° 322° (NW) 07:41:41 436.775 MHz
STRAND 1 01 Nov 07:56:51 08:00:44 22° 266° (W) 08:04:39 ?
RS-15 01 Nov 08:03:33 08:12:56 32° 255° (WSW) 08:22:42 29.354 - 29.394 USB, Beacon 29.352 USB
MaSat-1 01 Nov 08:08:07 08:10:04 21° 251° (WSW) 08:11:57 437.345 MHz
JAS-2 01 Nov 08:18:21 08:23:19 19° 304° (WNW) 08:28:14 435.800 - 435.900 CW/SSB, 435.910 FM
HO-68 01 Nov 08:21:35 08:25:44 16° 90° (E) 08:29:51 435.675 MHz FM
ISS 01 Nov 08:50:30 08:52:49 18° 131° (SE) 08:55:09 145.800 FM
SO-67 01 Nov 08:54:41 08:56:40 15° 292° (WNW) 08:58:39 435.3500 MHz FM
UKube-1 01 Nov 09:16:25 09:16:42 10° 90° (E) 09:16:58 145.840 MHz, 145.915 MHz
Sapphire 01 Nov 09:41:48 09:44:16 13° 40° (NE) 09:46:44 437.095 MHz 1200 baud AX-25 AFSK
Oscar 11 01 Nov 09:47:39 09:51:11 24° 95° (E) 09:54:42 145.825 FM, Beacon 2401.500 USB
KITSAT 1 01 Nov 09:57:35 10:04:54 40° 109° (ESE) 10:12:13 435.175 FM
SO-50 01 Nov 09:59:12 10:02:26 20° 110° (ESE) 10:05:44 436.795 FM
PCSat 01 Nov 10:02:26 10:06:18 19° 46° (NE) 10:10:08 145.825 MHz
HO-68 01 Nov 10:07:00 10:14:14 86° 287° (WNW) 10:21:25 435.675 MHz FM
FUNcube-1 01 Nov 10:07:28 10:10:02 16° 92° (E) 10:12:35 145.950 - 145.970 MHz USB
ISS 01 Nov 10:26:02 10:29:15 48° 327° (NNW) 10:32:30 145.800 FM
UKube-1 01 Nov 10:48:58 10:53:18 67° 286° (WNW) 10:57:37 145.840 MHz, 145.915 MHz
ZACube-1 01 Nov 10:59:50 11:04:00 66° 101° (E) 11:08:07 437.345 MHz
Sapphire 01 Nov 11:23:13 11:28:40 73° 60° (ENE) 11:34:05 437.095 MHz 1200 baud AX-25 AFSK
Oscar 11 01 Nov 11:23:39 11:27:19 28° 291° (WNW) 11:30:58 145.825 FM, Beacon 2401.500 USB
SO-50 01 Nov 11:38:20 11:42:38 44° 308° (NW) 11:47:04 436.795 FM
FUNcube-1 01 Nov 11:42:42 11:46:36 38° 288° (WNW) 11:50:26 145.950 - 145.970 MHz USB
PCSat 01 Nov 11:44:50 11:50:15 70° 245° (WSW) 11:55:36 145.825 MHz
KITSAT 1 01 Nov 11:52:24 12:00:07 48° 308° (NW) 12:07:54 435.175 FM
HO-68 01 Nov 11:56:38 12:00:54 17° 306° (NW) 12:05:09 435.675 MHz FM
Oscar 16 01 Nov 12:00:58 12:03:10 13° 60° (ENE) 12:05:21 437.025 USB, Beacon 2401.1428
ISS 01 Nov 12:04:44 12:06:35 14° 346° (NNW) 12:08:26 145.800 FM
JAS-1B 01 Nov 12:04:56 12:07:57 15° 58° (ENE) 12:11:00 435.800 - 435.900 CW/SSB
UOSAT-12 01 Nov 12:16:21 12:20:45 46° 116° (ESE) 12:25:15 437.025 FM, 437.400 FM
AO-Echo 01 Nov 12:28:19 12:29:53 11° 59° (ENE) 12:31:29 ?
Uribyol 2 01 Nov 12:36:13 12:38:03 12° 59° (ENE) 12:39:52 436.500 FM
ZACube-1 01 Nov 12:39:02 12:39:49 10° 298° (WNW) 12:40:35 437.345 MHz
ITAMSAT 1 01 Nov 12:43:49 12:46:12 13° 60° (ENE) 12:48:36 435.822 SSB
Saudisat 1A 01 Nov 12:46:02 12:47:15 11° 38° (NE) 12:48:27 436.775 MHz
Oscar 19 01 Nov 12:50:01 12:54:39 36° 69° (ENE) 12:59:17 437.125 CW, 437.150 USB
Sapphire 01 Nov 13:08:34 13:11:25 15° 257° (WSW) 13:14:15 437.095 MHz 1200 baud AX-25 AFSK
AO-27 01 Nov 13:28:59 13:33:40 35° 68° (ENE) 13:38:23 436.795 MHz FM
Oscar 16 01 Nov 13:36:39 13:41:48 81° 257° (WSW) 13:46:58 437.025 USB, Beacon 2401.1428
ISS 01 Nov 13:43:11 13:44:25 12° 7° (N) 13:45:39 145.800 FM
Gurwin Techsat 1B 01 Nov 13:50:47 13:55:19 30° 67° (ENE) 13:59:52 435.225 FM
JAS-1B 01 Nov 13:52:13 13:57:57 71° 257° (WSW) 14:03:41 435.800 - 435.900 CW/SSB
KITSAT 1 01 Nov 13:53:40 13:57:50 15° 333° (NNW) 14:02:01 435.175 FM
TMSAT-1 01 Nov 13:56:47 14:01:01 25° 66° (ENE) 14:05:16 436.925 FM
UOSAT-12 01 Nov 13:57:23 14:01:07 23° 314° (NW) 14:04:54 437.025 FM, 437.400 FM
AO-7 01 Nov 14:01:52 14:06:23 16° 49° (NE) 14:10:55 29.400 - 29.500 MHz
AO-Echo 01 Nov 14:02:48 14:07:48 90° 256° (WSW) 14:13:00 ?
Uribyol 2 01 Nov 14:11:29 14:16:43 90° 258° (WSW) 14:21:59 436.500 FM
ITAMSAT 1 01 Nov 14:19:46 14:24:59 81° 257° (WSW) 14:30:15 435.822 SSB
Saudisat 1A 01 Nov 14:23:10 14:27:36 72° 57° (ENE) 14:32:00 436.775 MHz
Oscar 19 01 Nov 14:29:45 14:34:01 26° 265° (W) 14:38:18 437.125 CW, 437.150 USB
AO-27 01 Nov 15:08:45 15:13:11 28° 264° (W) 15:17:38 436.795 MHz FM
ISS 01 Nov 15:19:06 15:22:00 26° 26° (NNE) 15:24:53 145.800 FM
Gurwin Techsat 1B 01 Nov 15:30:23 15:35:10 34° 263° (W) 15:39:59 435.225 FM
TMSAT-1 01 Nov 15:35:43 15:40:41 41° 262° (W) 15:45:42 436.925 FM
AO-7 01 Nov 15:49:32 15:57:44 72° 69° (ENE) 16:05:59 29.400 - 29.500 MHz
Uosat F 01 Nov 15:55:33 16:00:20 46° 71° (ENE) 16:05:09 435.120 FM
Saudisat 1A 01 Nov 16:05:20 16:06:33 11° 253° (WSW) 16:07:46 436.775 MHz
JAS-2 01 Nov 16:42:33 16:48:27 41° 66° (ENE) 16:55:04 435.800 - 435.900 CW/SSB, 435.910 FM
ISS 01 Nov 16:55:36 16:58:46 40° 223° (SW) 17:01:55 145.800 FM
Uosat F 01 Nov 17:35:42 17:39:19 20° 267° (W) 17:42:58 435.120 FM
AO-7 01 Nov 17:44:51 17:51:08 24° 266° (W) 17:57:29 29.400 - 29.500 MHz
KITSAT 1 01 Nov 17:51:23 17:57:11 21° 36° (NE) 18:02:57 435.175 FM
Hamsat 01 Nov 17:54:58 17:59:09 77° 258° (WSW) 18:03:20 145.90 MHz
OPAL 01 Nov 18:08:08 18:13:04 67° 104° (ESE) 18:17:59 ?
JAS-2 01 Nov 18:27:53 18:33:33 34° 267° (W) 18:39:53 435.800 - 435.900 CW/SSB, 435.910 FM
STRAND 1 01 Nov 18:29:16 18:32:14 15° 91° (E) 18:35:12 ?
SO-50 01 Nov 18:30:35 18:34:07 20° 44° (NE) 18:37:41 436.795 FM
HO-68 01 Nov 18:52:01 18:54:52 13° 51° (NE) 18:57:44 435.675 MHz FM
SO-67 01 Nov 19:24:57 19:28:16 48° 261° (W) 19:31:37 435.3500 MHz FM
KITSAT 1 01 Nov 19:45:55 19:54:01 76° 59° (ENE) 20:02:05 435.175 FM
OPAL 01 Nov 19:48:41 19:51:23 15° 301° (WNW) 19:54:05 ?
STRAND 1 01 Nov 20:06:44 20:11:49 60° 287° (WNW) 20:16:51 ?
SO-50 01 Nov 20:10:17 20:15:05 62° 242° (WSW) 20:19:54 436.795 FM
RS-15 01 Nov 20:13:06 20:23:24 48° 110° (ESE) 20:33:35 29.354 - 29.394 USB, Beacon 29.352 USB
HO-68 01 Nov 20:34:10 20:41:14 67° 70° (ENE) 20:48:22 435.675 MHz FM
Oscar 11 01 Nov 20:42:37 20:45:35 19° 66° (ENE) 20:48:34 145.825 FM, Beacon 2401.500 USB
UOSAT-12 01 Nov 20:46:42 20:51:01 34° 50° (NE) 20:55:15 437.025 FM, 437.400 FM
FUNcube-1 01 Nov 21:03:45 21:06:04 14° 65° (ENE) 21:08:23 145.950 - 145.970 MHz USB
MaSat-1 01 Nov 21:40:45 21:44:37 66° 113° (ESE) 21:48:06 437.345 MHz
KITSAT 1 01 Nov 21:42:43 21:48:34 23° 257° (WSW) 21:54:25 435.175 FM
UKube-1 01 Nov 21:43:17 21:47:38 86° 256° (WSW) 21:52:02 145.840 MHz, 145.915 MHz
ZACube-1 01 Nov 21:55:08 21:59:30 49° 73° (ENE) 22:03:47 437.345 MHz
Oscar 11 01 Nov 22:17:28 22:21:29 38° 262° (W) 22:25:31 145.825 FM, Beacon 2401.500 USB
HO-68 01 Nov 22:24:09 22:29:27 22° 267° (W) 22:34:47 435.675 MHz FM
RS-15 01 Nov 22:25:05 22:35:38 51° 312° (NW) 22:46:15 29.354 - 29.394 USB, Beacon 29.352 USB
UOSAT-12 01 Nov 22:27:02 22:31:03 28° 247° (WSW) 22:34:59 437.025 FM, 437.400 FM
FUNcube-1 01 Nov 22:37:33 22:41:59 56° 260° (W) 22:46:22 145.950 - 145.970 MHz USB
ZACube-1 01 Nov 23:33:34 23:36:07 15° 268° (W) 23:38:39 437.345 MHz
RS-15 02 Nov 00:43:56 00:51:32 20° 344° (NNW) 00:59:14 29.354 - 29.394 USB, Beacon 29.352 USB
PCSat 02 Nov 00:44:46 00:48:06 17° 104° (ESE) 00:51:26 145.825 MHz
Oscar 19 02 Nov 01:04:03 01:06:16 13° 90° (E) 01:08:30 437.125 CW, 437.150 USB
JAS-1B 02 Nov 01:34:44 01:41:31 36° 98° (E) 01:49:22 435.800 - 435.900 CW/SSB
AO-27 02 Nov 01:44:34 01:46:47 13° 90° (E) 01:48:59 436.795 MHz FM
Oscar 16 02 Nov 01:49:22 01:54:07 37° 98° (E) 01:58:50 437.025 USB, Beacon 2401.1428
